Location: ????? ???????
(25.7275°N, 32.5929°E)
Time: 12:10:48
(UTC+00:00)

Lacrosse 5 rocket - Pass Details

Date: 02 March 2021
Orbit: 463 x 631 km, 57.0° (Epoch: 15 April)

Event Time Altitude Azimuth Distance (km) Brightness Sun altitude
Rises 16:55:15 0° 301° (WNW) 2,799 6.0 -15.0°
Reaches altitude 10° 16:58:24 10° 278° (W) 1,858 5.3 -15.8°
Maximum altitude 17:00:45 15° 244° (WSW) 1,547 4.5 -16.3°
Drops below altitude 10° 17:03:02 10° 209° (SSW) 1,793 4.3 -16.8°
Sets 17:06:00 0° 185° (S) 2,638 4.9 -17.5°
